Location: Royer Oaks
(36.2112°N, 118.8127°W)
Time: 08:41:00
(UTC-07:00)

ISS - Visible Passes

Search period start: 04 August 2021 00:00
Search period end: 14 August 2021 00:00
Orbit: 419 x 421 km, 51.6° (Epoch: 04 August)

Date Brightness Start Highest point End Pass type
(mag) Time Alt. Az. Time Alt. Az. Time Alt. Az.
04 Aug -3.6 20:27:04 10° NW 20:30:26 71° SW 20:33:46 10° SE visible
05 Aug -1.0 21:18:30 10° WSW 21:19:32 11° SW 21:20:33 10° SW visible
06 Aug -1.5 20:29:50 10° W 20:32:23 20° SW 20:34:55 10° S visible
